Regional Weather Roundup
Issued by NWS

Home | Current Version | Previous Version | Graphics & Text | Print | Product List | Glossary On
Versions: 1 2 3 4 5 6 7 8 9 10 11 12 13 14 15 16 17 18 19 20 21 22 23 24 25 26 27 28 29 30 31 32 33 34 35 36 37 38 39 40 41 42 43 44 45 46 47 48 49 50
000
ASUS43 KOAX 251210
RWRNE

WEATHER ROUNDUP FOR NEBRASKA
NATIONAL WEATHER SERVICE OMAHA NE
600 AM CST TUE NOV 25 2014

NOTES: SATELLITE DATA IS BEING USED TO AUGMENT CLOUD COVER ABOVE
       12000 FEET.
       "FAIR" INDICATES FEW OR NO CLOUDS BELOW 12,000 FEET WITH NO
       SIGNIFICANT WEATHER AND/OR OBSTRUCTIONS TO VISIBILITY.

  * THESE STATIONS DO NOT REPORT WEATHER SUCH AS RAIN...SNOW OR FOG.

NEZ001>004-019>022-054>056-251300-
NEBRASKA PANHANDLE

CITY           SKY/WX    TMP DP  RH WIND       PRES   REMARKS
SCOTTSBLUFF    CLOUDY    21  16  81 E5        30.01F WCI  15
6HR MIN TEMP:  18; 6HR MAX TEMP:  23;

ALLIANCE       MOCLDY    24  18  77 SW10      29.99F WCI  14
6HR MIN TEMP:  12; 6HR MAX TEMP:  24;

CHADRON        CLOUDY    28  20  71 W10       29.96F WCI  19
6HR MIN TEMP:  22; 6HR MAX TEMP:  29;

KIMBALL        PTCLDY    23  15  70 SW10      30.01F WCI  12
SIDNEY         PTCLDY    21  14  74 W6        30.05F WCI  13
6HR MIN TEMP:  19; 6HR MAX TEMP:  24;

$$

NEZ057>060-069>072-079>082-251300-
SOUTHWEST NEBRASKA

CITY           SKY/WX    TMP DP  RH WIND       PRES   REMARKS
NORTH PLATTE   CLEAR     13  10  88 NW7       30.09F WCI   3
6HR MIN TEMP:  10; 6HR MAX TEMP:  19;

IMPERIAL       CLEAR     19  13  77 W9        30.11F WCI   8
6HR MIN TEMP:  19; 6HR MAX TEMP:  27;

LEXINGTON      CLEAR     14  12  91 W6        30.11S WCI   5
MCCOOK         CLEAR     20  16  84 W12       30.14F WCI   8
6HR MIN TEMP:  18; 6HR MAX TEMP:  28;

OGALLALA       PTCLDY    20  17  88 SW5       30.08F WCI  14
$$

NEZ005>010-023>029-035>040-094-251300-
NORTH CENTRAL NEBRASKA

CITY           SKY/WX    TMP DP  RH WIND       PRES   REMARKS
VALENTINE      PTCLDY    19  16  88 SW7       30.00F WCI  10
6HR MIN TEMP:  19; 6HR MAX TEMP:  28; 6HR PCP: TRACE;

AINSWORTH      CLEAR     20  18  92 SW7       30.01F WCI  11
BROKEN BOW     CLEAR     24  19  81 SW3       30.06F
6HR MIN TEMP:  18; 6HR MAX TEMP:  25;

O`NEILL        CLEAR     19  18  95 S5        30.04S WCI  12
ORD            CLEAR     18  15  88 CALM      30.07F
6HR MIN TEMP:  12; 6HR MAX TEMP:  21;

THEDFORD       CLEAR     22  19  89 W5        30.04S WCI  16
$$

NEZ041-046>049-061>064-073>077-083>087-251300-
SOUTH CENTRAL NEBRASKA

CITY           SKY/WX    TMP DP  RH WIND       PRES   REMARKS
GRAND ISLAND   CLEAR     22  18  85 W9        30.11F WCI  12
6HR MIN TEMP:  19; 6HR MAX TEMP:  22;

AURORA         PTCLDY    19  17  90 SW6       30.11S WCI  11
HASTINGS       CLEAR     23  19  85 W8        30.11F WCI  14
6HR MIN TEMP:  19; 6HR MAX TEMP:  24;

HEBRON         CLEAR     19  14  80 W5        30.16S WCI  12
HOLDREGE       CLEAR     23  20  88 W8        30.11F WCI  14
KEARNEY *      CLEAR     21  16  79 SW7       30.11F WCI  13
YORK           CLEAR     18  14  86 SW6       30.12S WCI   9
$$

NEZ011>018-030>034-042>045-251300-
NORTHEAST NEBRASKA

CITY           SKY/WX    TMP DP  RH WIND       PRES   REMARKS
NORFOLK        MOCLDY    15  11  83 S3        30.07F
6HR MIN TEMP:  13; 6HR MAX TEMP:  21;

ALBION         PTCLDY    12   8  85 CALM      30.08S
BLAIR          CLEAR     19  10  68 W3        30.11S
COLUMBUS *     CLEAR     18   9  68 CALM      30.11F
FREMONT        CLEAR     16  11  78 CALM      30.12F
TEKAMAH        CLEAR     15   6  67 SW3       30.13S
6HR MIN TEMP:  14; 6HR MAX TEMP:  23;

WAYNE          PTCLDY    12   8  81 CALM      30.09S
$$

NEZ050>053-065>068-078-088>093-251300-
SOUTHEAST NEBRASKA

CITY           SKY/WX    TMP DP  RH WIND       PRES   REMARKS
LINCOLN        CLEAR     18  10  71 S3        30.16S
6HR MIN TEMP:  17; 6HR MAX TEMP:  26;

OMAHA EPPLEY   CLEAR     18   8  65 W3        30.16R
6HR MIN TEMP:  18; 6HR MAX TEMP:  25;

BEATRICE       CLEAR     14   9  80 CALM      30.15F
FALLS CITY     CLEAR     19  10  68 W8        30.17S WCI   9
6HR MIN TEMP:  19; 6HR MAX TEMP:  27;

NEBRASKA CITY  CLEAR     19   8  61 W7        30.14F WCI  10
PLATTSMOUTH    CLEAR     18   8  65 W5        30.14S WCI  11
$$

NEZ044-045-051>053-067-251300-
OMAHA AREA

CITY           SKY/WX    TMP DP  RH WIND       PRES   REMARKS
OMAHA EPPLEY   CLEAR     18   8  65 W3        30.16R
6HR MIN TEMP:  18; 6HR MAX TEMP:  25;

BLAIR          CLEAR     19  10  68 W3        30.11S
FREMONT        CLEAR     16  11  78 CALM      30.12F
MILLARD        CLEAR     20  10  66 CALM      30.14S
OFFUTT AFB     CLEAR     17   9  71 W3        30.14S
PLATTSMOUTH    CLEAR     18   8  65 W5        30.14S WCI  11
WAHOO          FAIR      18  10  73 SW3       30.13S
$$


USA.gov is the U.S. government's official web portal to all federal, state and local government web resources and services.